W2CJS Weather Reports


Display with metric or nautical units.
time (UTC)temp
F
wind
direction
speed
MPH
gust
MPH
rain 1hr
in
rain 24hr
in
rain mn
in
humidity
%
barometer
mb
20260504050003 41 223 3.0 5.0 0.01 0.03 0.01 92 1006.9
20260504045003 41 222 3.0 6.0 0.01 0.03 0.01 91 1006.8
20260504044003 41 223 3.0 5.0 0.01 0.03 0.01 91 1007.0
20260504043003 41 218 3.0 8.0 0.02 0.03 0.01 90 1007.1
20260504042003 41 233 3.0 5.0 0.02 0.03 0.01 90 1007.0
20260504041003 40 230 3.0 6.0 0.02 0.03 0.01 90 1007.1
20260504040003 40 230 3.0 8.0 0.01 0.02 0.00 89 1007.2
20260504035003 41 228 3.0 6.0 0.02 0.02 0.02 88 1007.2
20260504034003 41 231 5.0 11.0 0.02 0.02 0.02 88 1007.4
20260504033003 41 229 4.0 8.0 0.01 0.01 0.01 87 1007.4
20260504032003 41 227 3.0 7.0 0.01 0.01 0.01 86 1007.4
20260504031003 41 233 4.0 9.0 0.01 0.01 0.01 85 1007.5
20260504030003 41 227 4.0 8.0 0.01 0.01 0.01 83 1007.7
20260504025003 42 222 4.0 9.0 0.00 0.00 0.00 81 1007.7
20260504024003 42 222 4.0 10.0 0.00 0.00 0.00 79 1007.8
20260504023003 43 225 3.0 9.0 0.00 0.00 0.00 73 1007.8
20260504022003 44 226 5.0 9.0 0.00 0.00 0.00 67 1007.8
20260504021003 44 228 5.0 13.0 0.00 0.00 0.00 65 1007.8
20260504020024 45 223 4.0 8.0 0.00 0.00 0.00 61 1007.8
20260504015003 45 224 3.0 9.0 0.00 0.00 0.00 59 1007.7
20260504014003 45 225 3.0 9.0 0.00 0.00 0.00 58 1007.7
20260504013003 45 225 5.0 14.0 0.00 0.00 0.00 57 1007.6
20260504012003 45 223 2.0 5.0 0.00 0.00 0.00 56 1007.6
20260504011003 45 259 2.0 6.0 0.00 0.00 0.00 56 1007.6
20260504010003 45 219 4.0 9.0 0.00 0.00 0.00 56 1007.6
20260504005004 45 233 4.0 12.0 0.00 0.00 0.00 53 1007.7
20260504004003 45 224 3.0 8.0 0.00 0.00 0.00 49 1007.6
20260504003003 45 223 3.0 6.0 0.00 0.00 0.00 47 1007.5
20260504002003 45 221 3.0 7.0 0.00 0.00 0.00 47 1007.5
20260504001024 45 222 3.0 5.0 0.00 0.00 0.00 48 1007.5
20260504000003 45 220 3.0 7.0 0.00 0.00 0.00 46 1007.4
20260503235003 45 226 4.0 14.0 0.00 0.00 0.00 46 1007.5
20260503234024 45 225 3.0 6.0 0.00 0.00 0.00 44 1007.3
20260503233003 46 250 2.0 5.0 0.00 0.00 0.00 43 1007.4
20260503232003 47 270 1.0 4.0 0.00 0.00 0.00 41 1007.3
20260503231003 47 249 2.0 8.0 0.00 0.00 0.00 42 1007.1
20260503230003 48 287 2.0 5.0 0.00 0.00 0.00 40 1007.0
20260503225003 47 232 3.0 10.0 0.00 0.00 0.00 42 1007.0
20260503224003 48 169 2.0 6.0 0.00 0.00 0.00 40 1007.0
20260503223024 48 308 3.0 9.0 0.00 0.00 0.00 39 1006.9
20260503222003 48 264 4.0 9.0 0.00 0.00 0.00 37 1006.9
20260503221003 48 277 3.0 8.0 0.00 0.00 0.00 35 1007.0
20260503220003 48 235 5.0 16.0 0.00 0.00 0.00 36 1006.9
20260503215003 48 237 5.0 12.0 0.00 0.00 0.00 37 1006.9
20260503214003 48 245 4.0 9.0 0.00 0.00 0.00 36 1006.8
20260503213003 48 275 4.0 13.0 0.00 0.00 0.00 35 1006.8
20260503212024 49 250 5.0 12.0 0.00 0.00 0.00 35 1006.7
20260503211003 48 235 5.0 14.0 0.00 0.00 0.00 38 1006.5
20260503210003 49 234 6.0 13.0 0.00 0.00 0.00 37 1006.5
20260503205003 49 240 4.0 9.0 0.00 0.00 0.00 39 1006.5
20260503204003 48 283 3.0 10.0 0.00 0.00 0.00 39 1006.5
20260503203024 49 217 4.0 10.0 0.00 0.00 0.00 39 1006.6
20260503202003 48 289 4.0 10.0 0.00 0.00 0.00 38 1006.5
20260503201003 48 34 3.0 10.0 0.00 0.00 0.00 44 1006.7
20260503200003 48 241 4.0 10.0 0.00 0.00 0.00 43 1006.7
20260503195003 48 230 5.0 15.0 0.00 0.00 0.00 41 1006.9
20260503194003 47 310 3.0 8.0 0.00 0.00 0.00 42 1007.2
20260503193003 46 327 3.0 11.0 0.00 0.00 0.00 45 1007.3
20260503192003 46 300 3.0 8.0 0.00 0.00 0.00 45 1007.5
20260503191003 46 234 5.0 10.0 0.00 0.00 0.00 45 1007.6
20260503190024 46 236 4.0 7.0 0.00 0.00 0.00 47 1007.8
20260503185024 46 249 4.0 10.0 0.00 0.00 0.00 47 1007.7
20260503184003 46 228 3.0 8.0 0.00 0.00 0.00 45 1007.8
20260503183003 46 253 4.0 12.0 0.00 0.00 0.00 47 1007.8
20260503182024 45 257 3.0 10.0 0.00 0.00 0.00 46 1008.0
20260503181003 45 265 4.0 10.0 0.00 0.00 0.00 46 1008.0
20260503180003 45 234 3.0 9.0 0.00 0.00 0.00 46 1008.0
20260503175003 45 239 3.0 14.0 0.00 0.00 0.00 46 1007.9
20260503174003 45 300 4.0 9.0 0.00 0.00 0.00 46 1007.9
20260503173003 45 231 4.0 9.0 0.00 0.00 0.00 46 1008.0
20260503172024 44 342 3.0 10.0 0.00 0.00 0.00 52 1008.0
20260503171003 44 12 3.0 10.0 0.00 0.00 0.00 52 1008.0
20260503151003 42 245 3.0 8.0 0.00 0.01 0.00 58 1009.0
20260503131003 39 239 2.0 4.0 0.00 0.01 0.00 72 1009.5
20260503081003 35 0 0.0 0.0 0.00 0.02 0.00 88 1009.5
20260503072003 35 0 0.0 0.0 0.00 0.02 0.00 87 1009.4
20260503071003 35 0 0.0 0.0 0.00 0.02 0.00 87 1009.5